Regional Weather Roundup
Issued by NWS

Home | Current Version | Previous Version | Graphics & Text | Print | Product List | Glossary Off
Versions: 1 2 3 4 5 6 7 8 9 10 11 12 13 14 15 16 17 18 19 20 21 22 23 24 25 26 27 28 29 30 31 32 33 34 35 36 37 38 39 40 41 42 43 44 45 46 47 48 49 50

000
ASUS43 KMKX 231811
RWRWI

WISCONSIN REGIONAL WEATHER ROUNDUP
NATIONAL WEATHER SERVICE MILWAUKEE/SULLIVAN WI
100 PM CDT SUN JUL 23 2017

NOTE: "FAIR" INDICATES FEW OR NO CLOUDS BELOW 12,000 FEET WITH NO
SIGNIFICANT WEATHER AND/OR OBSTRUCTIONS TO VISIBILITY.

WIZ001-002-006>008-014>016-023>028-231900-
NORTHWEST WISCONSIN

CITY           SKY/WX    TMP DP  RH WIND       PRES   REMARKS
SUPERIOR ARPT  NOT AVBL
ASHLAND        CLOUDY    60  58  92 NE13      29.96S FOG
6HR MIN TEMP:  57; 6HR MAX TEMP:  60; 6HR PCP:  0.03;

HAYWARD        CLOUDY    61  57  87 N13       29.96R
6HR MIN TEMP:  57; 6HR MAX TEMP:  64;

SIREN          CLOUDY    67  57  70 N7        29.96S
6HR MIN TEMP:  59; 6HR MAX TEMP:  67;

CUMBERLAND     CLOUDY    63  55  77 N7        29.95S
RICE LAKE      CLOUDY    64  57  78 NW6       29.95R
6HR MIN TEMP:  62; 6HR MAX TEMP:  67;

CHETEK         CLOUDY    65  59  81 N8        29.93R
6HR MIN TEMP:  65; 6HR MAX TEMP:  69;

LADYSMITH      CLOUDY    69  59  70 NW7       29.93S
6HR MIN TEMP:  62; 6HR MAX TEMP:  69;

EAU CLAIRE     PTSUNNY   74  60  61 N10       29.88S
6HR MIN TEMP:  64; 6HR MAX TEMP:  76;

MENOMONIE      CLOUDY    73  60  63 NW12G18   29.90S
6HR MIN TEMP:  65; 6HR MAX TEMP:  74;

NEW RICHMOND   MOSUNNY   73  58  59 N17       29.94R
6HR MIN TEMP:  64; 6HR MAX TEMP:  73;

OSCEOLA        PTSUNNY   73  60  64 N12G17    29.97R
6HR MIN TEMP:  65; 6HR MAX TEMP:  73;

$$

WIZ003>005-009-010-017-018-231900-
NORTH CENTRAL WISCONSIN

CITY           SKY/WX    TMP DP  RH WIND       PRES   REMARKS
MANITOWISH WTR CLOUDY    59  59 100 N6        29.93R
6HR MIN TEMP:  57; 6HR MAX TEMP:  60;

ARBOR VITAE    CLOUDY    62  59  89 N8        29.91S
6HR MIN TEMP:  62; 6HR MAX TEMP:  64;

WOODRUFF       CLOUDY    62  59  89 N8        29.91S
6HR MIN TEMP:  62; 6HR MAX TEMP:  64;

RHINELANDER    CLOUDY    68  61  78 VRB7      29.90R
6HR MIN TEMP:  63; 6HR MAX TEMP:  68;

EAGLE RIVER    CLOUDY    64  59  85 N9        29.90S
6HR MIN TEMP:  61; 6HR MAX TEMP:  65;

LAND O LAKES   CLOUDY    62  58  87 N9        29.93R
6HR MIN TEMP:  60; 6HR MAX TEMP:  63;

PHILLIPS       CLOUDY    64  60  87 N9        29.91R
6HR MIN TEMP:  58; 6HR MAX TEMP:  64;

TOMAHAWK         N/A     69  59  69 NW8       29.89R
6HR MIN TEMP:  58; 6HR MAX TEMP:  71;

MEDFORD        MOSUNNY   70  60  70 N13       29.88S
6HR MIN TEMP:  63; 6HR MAX TEMP:  73;

MERRILL        MOSUNNY   75  61  61 N10       29.86S
6HR MIN TEMP:  61; 6HR MAX TEMP:  76;

$$

WIZ029-030-035-036-043>047-231900-
CENTRAL WISCONSIN

CITY           SKY/WX    TMP DP  RH WIND       PRES   REMARKS
WAUSAU         PTSUNNY   75  57  53 NW13      29.83S
6HR MIN TEMP:  66; 6HR MAX TEMP:  78;

MOSINEE        PTSUNNY   79  61  53 N12       29.85S HX  80
MARSHFIELD     MOSUNNY   77  57  50 NW10      29.85S
6HR MIN TEMP:  65; 6HR MAX TEMP:  79; 6HR PCP: TRACE;

STEVENS POINT  MOSUNNY   78  57  48 NW10      29.83S
6HR MIN TEMP:  65; 6HR MAX TEMP:  78;

WAUPACA        SUNNY     84  56  39 NW9       29.81S HX  83
6HR MIN TEMP:  69; 6HR MAX TEMP:  84;

WAUTOMA        SUNNY     81  60  48 NW9G18    29.82S HX  82
6HR MIN TEMP:  68; 6HR MAX TEMP:  81;

WISC RAPIDS    MOSUNNY   83  59  44 NW16G24   29.85S HX  83
6HR MIN TEMP:  64; 6HR MAX TEMP:  83; 6HR PCP:  0.01;

CAMP DOUGLAS   PTSUNNY   79  61  53 NW14      29.84S HX  80
                                      6HR PCP: TRACE;

$$

WIZ011>013-019>022-031-037>040-048>050-231900-
NORTHEAST WISCONSIN

CITY           SKY/WX    TMP DP  RH WIND       PRES   REMARKS
ANTIGO         PTSUNNY   76  60  58 N9        29.85S
6HR MIN TEMP:  63; 6HR MAX TEMP:  76;

SHAWANO        PTSUNNY   79  62  55 NW6       29.80S HX  80
6HR MIN TEMP:  67; 6HR MAX TEMP:  80;

OCONTO         MOSUNNY   78  64  62 NW8       29.79S HX  80
6HR MIN TEMP:  64; 6HR MAX TEMP:  78;

STURGEON BAY     N/A     72  66  81 N7        29.80F
6HR MIN TEMP:  66; 6HR MAX TEMP:  73;

GREEN BAY      PTSUNNY   76  69  79 N5        29.79F
6HR MIN TEMP:  68; 6HR MAX TEMP:  80; 6HR PCP: TRACE;

MANITOWOC      CLOUDY    79  64  60 NW8       29.80S HX  81
6HR MIN TEMP:  68; 6HR MAX TEMP:  79;

APPLETON       PTSUNNY   75  57  53 W7        29.80S
CLINTONVILLE   MOSUNNY   79  63  57 NE12      29.80S HX  80
OSHKOSH        CLOUDY    82  64  54 W10       29.80F HX  83
6HR MIN TEMP:  69; 6HR MAX TEMP:  82; 6HR PCP: TRACE;

$$

WIZ032>034-041-042-053>061-231900-
SOUTHWEST WISCONSIN

CITY           SKY/WX    TMP DP  RH WIND       PRES   REMARKS
LA CROSSE      SUNNY     82  64  54 NW13      29.85S HX  83
6HR MIN TEMP:  69; 6HR MAX TEMP:  82;

SPARTA         MOSUNNY   78  59  51 NW15G21   29.86S
6HR MIN TEMP:  60; 6HR MAX TEMP:  78;

VIROQUA        MOSUNNY   78  63  60 NW13G18   29.87F HX  80
6HR MIN TEMP:  66; 6HR MAX TEMP:  78;

BOSCOBEL       PTSUNNY   84  62  47 N8        29.83S HX  85
6HR MIN TEMP:  67; 6HR MAX TEMP:  85;

PRAIRIE DU CHI SUNNY     82  54  38 N12       29.83S HX  81
6HR MIN TEMP:  70; 6HR MAX TEMP:  82;

PLATTEVILLE    PTSUNNY   82  73  76 W9        29.83F HX  87
6HR MIN TEMP:  69; 6HR MAX TEMP:  83;

$$

WIZ056-057-062-063-064-067-068-231900-
SOUTH CENTRAL WISCONSIN

CITY           SKY/WX    TMP DP  RH WIND       PRES   REMARKS
REEDSBURG      CLOUDY    78  63  58 W7        29.83S HX  80
6HR MIN TEMP:  65; 6HR MAX TEMP:  80; 6HR PCP:  0.05;

BARABOO/DELLS  PTSUNNY   82  54  38 NW12      29.84S HX  81
6HR MIN TEMP:  66; 6HR MAX TEMP:  82; 6HR PCP:  0.02;

LONE ROCK      PTSUNNY   82  63  52 N6        29.82S HX  83
6HR MIN TEMP:  66; 6HR MAX TEMP:  83; 6HR PCP: TRACE;

MINERAL POINT  PTSUNNY   82  70  65 NW9G16    29.82F HX  86
MADISON        MOSUNNY   81  65  58 NW8       29.81F HX  83
6HR MIN TEMP:  71; 6HR MAX TEMP:  81; 6HR PCP: TRACE;

MIDDLETON      PTSUNNY   81  66  60 NE3       29.83F HX  83
6HR MIN TEMP:  68; 6HR MAX TEMP:  82;

WATERTOWN      CLOUDY    78  67  68 N9        29.81S HX  80
6HR MIN TEMP:  69; 6HR MAX TEMP:  80; 6HR PCP:  0.01;

MONROE         MOSUNNY   82  68  61 W14       29.82F HX  85
JANESVILLE     PTSUNNY   82  70  65 W12G17    29.80F HX  86
$$

WIZ051-052-058>065-066-070>072-231900-
SOUTHEAST WISCONSIN

CITY           SKY/WX    TMP DP  RH WIND       PRES   REMARKS
MILWAUKEE      CLOUDY    85  64  49 W7        29.78F HX  86
6HR MIN TEMP:  72; 6HR MAX TEMP:  86;

WAUKESHA       MOSUNNY   79  63  57 NW9       29.81F HX  80
MILWAUKEE/TIMM PTSUNNY   81  63  54 NW7       29.80F HX  82
RACINE         CLOUDY    85  66  53 W8        29.80F HX  87
6HR MIN TEMP:  71; 6HR MAX TEMP:  86;

KENOSHA        SUNNY     87  61  41 NW10      29.79F HX  87
6HR MIN TEMP:  71; 6HR MAX TEMP:  87;

FOND DU LAC    PTSUNNY   79  58  48 NW10      29.81F HX  80
6HR MIN TEMP:  71; 6HR MAX TEMP:  82;

SHEBOYGAN      CLOUDY    77  67  71 NW9       29.80S
6HR MIN TEMP:  68; 6HR MAX TEMP:  78;

WEST BEND      CLOUDY    77  61  57 NW8       29.81S
JUNEAU         CLOUDY    76  63  62 NW3       29.83S
6HR MIN TEMP:  69; 6HR MAX TEMP:  78;

$$

LSZ147-162-231900-
LAKE SUPERIOR

STATION/POSITION TIME  TEMP    WIND        PRES    WAVE
                       AIR SEA DIR/SP/G            HT/PER
                 (UTC) (F)     (DEG/KT/KT) (MB)    (FT/S)
W MID LAKE BUOY  1750   51 48   20/ 12/ 16 1014.5R   2/ 4
DEVILS ISLAND    1800   57      60/ 13/ 15 1014.9R
PORT WING        1640   57     310/  2/  3 1014.6R
SAXON HARBOR     1730   58     360/  6/  8 1013.9R
$$

LMZ867-665-643>646-231900-
LAKE MICHIGAN

STATION/POSITION TIME  TEMP    WIND        PRES    WAVE
                       AIR SEA DIR/SP/G            HT/PER
                 (UTC) (F)     (DEG/KT/KT) (MB)    (FT/S)
CHAMBERS ISLAND  1740   72      10/  7/  8 1008.5S
S GR



USA.gov is the U.S. government's official web portal to all federal, state and local government web resources and services.